User: anonymous   Login
Location: ???????
(55.9569°N, 38.6553°E)
Time: 13:17:27
(UTC+00:00)
Language:

SJ 16-02 - Orbit

View from above orbital plane
View from above orbital plane
View from above satellite
View from above satellite

Ground track
Ground track

The orbit data is extracted from the following two-line orbital elements,

1 41634U 16043A   24196.19039049  .00001860  00000-0  19855-3 0  9995
2 41634  75.0003 166.2242 0009051 301.5957  58.4346 14.89400778436329
Epoch (UTC): 14 July 2024 04:34:09
Eccentricity: 0.0009051
inclination: 75.0003°
perigee height: 593 km
apogee height: 606 km
right ascension of ascending node: 166.2242°
argument of perigee: 301.5957°
revolutions per day: 14.89400778
mean anomaly at epoch: 58.4346°
orbit number at epoch: 43632

The dashed part of the orbit path shows where the satellite is in the earth's shadow,  

DLR